{"data":{"norad_id":64714,"intl_designator":"2025-142U","name":"STARLINK-34574","alt_names":[],"object_type":"PAYLOAD","status":"ACTIVE","operator":null,"country":"US","launch_date":"2025-06-28","launch_site_code":"AFWTR","launch_vehicle":null,"mission":null,"orbit_class":"UNKNOWN","rcs_meters":null,"size_class":null,"mass_kg":null,"dimensions":null,"purposes":["comms"],"wikipedia_slug":null,"has_3d_model":false,"image_url":null,"decayed_at":null,"tle_current":{"epoch":"2026-05-25T05:24:39.261024Z","epoch_age_seconds":62490,"freshness":"FRESH","line1":"1 64714U 25142U   26145.22545441  .00001589  00000+0  14087-3 0  9996","line2":"2 64714  70.0002 121.5364 0004029 264.8826  95.1874 14.98337495 50952","mean_motion":14.98337495,"eccentricity":0.0004029,"inclination_deg":70.0002,"raan_deg":121.5364,"arg_perigee_deg":264.8826,"mean_anomaly_deg":95.1874,"bstar":0.00014087,"rev_number":5095,"period_min":96.106518378224,"perigee_km":569.23248999428,"apogee_km":574.83293674932,"semimajor_km":6950.1697133718,"source":"CELESTRAK","updated_at":"2026-05-25T13:38:20.516077Z"}}}